sat.trackr.live / text

‹ back to catalog

FLOCK 4BE-36

NORAD 60486 · 2024-149U

PAYLOAD ACTIVE UNKNOWN

§ Identity

Operator
Country
US
Launch date
2024-08-16
Launch site
AFWTR
Launch vehicle
Mass (kg)
RCS (m²)

Purposes: earth_obs

External: N2YO · Heavens-Above · Gunter

§ Orbital elements

Epoch: 2026-05-25T03:36:13.135392Z

Period
93.39 min
Inclination
97.3739°
Eccentricity
0.0003025
Mean motion
15.41904264 rev/d
Perigee alt
438.4 km
Apogee alt
442.6 km
Semi-major
6,818.6 km
B*
3.9265e-4
RAAN
229.3164°
Arg perigee
18.8397°
Mean anomaly
341.2962°
Rev number
9,880

§ Raw data

FLOCK 4BE-361 60486U 24149U   26145.15015203  .00016614  00000+0  39265-3 0  99942 60486  97.3739 229.3164 0003025  18.8397 341.2962 15.41904264 98805

JSON: /api/v1/satellites/60486 · /tle

For live sub-satellite position, see the globe view (requires WebGL).

§ Visibility from observer

Set your observer location to see the next 7 days of passes ≥ 10°. The values pass through the URL so the page stays shareable.

No JS? Fill the form by hand. The geolocation button needs JavaScript.